This demonstration page uses our WeatherBlox Daily Observations layout. Learn more.

Hourly Observations for May 20, 2015

Temp ( °F °C ) Dew Point ( °F °C ) Humidity (%) Winds ( mph kmh ) Pressure ( in mb ) Visibility ( mi km ) Precip ( " mm )
12:15 am 00:15 Cloudy with Mist and Fog 41 5 39 4 93 93 NE 9 15 30.24 1024 4 6.437376 0 0
12:35 am 00:35 Cloudy with Mist and Fog 41 5 39 4 93 93 NNE 9 15 30.24 1024 5 8.04672 0 0
12:55 am 00:55 Cloudy with Mist and Fog 41 5 39 4 93 93 NE 8 13 30.24 1024 4 6.437376 0 0
1:15 am 01:15 Cloudy with Mist and Fog 41 5 39 4 93 93 NNE 9 15 30.24 1024 4 6.437376 0 0
1:35 am 01:35 Cloudy with Mist and Fog 41 5 39 4 93 93 NNE 9 15 30.24 1024 3 4.828032 0 0
1:55 am 01:55 Cloudy with Mist and Fog 41 5 39 4 93 93 NNE 9 15 30.24 1024 3 4.828032 0 0
2:15 am 02:15 Cloudy with Mist and Fog 41 5 39 4 93 93 NNE 9 15 30.24 1024 3 4.828032 0 0
2:35 am 02:35 Cloudy with Mist and Fog 41 5 39 4 93 93 NNE 10 17 30.24 1024 3 4.828032 0 0
2:55 am 02:55 Cloudy with Mist and Fog 41 5 39 4 93 93 NNE 9 15 30.21 1023 3 4.828032 0 0
3:15 am 03:15 Cloudy with Mist and Fog 41 5 39 4 93 93 NNE 9 15 30.21 1023 4 6.437376 0 0
3:35 am 03:35 Cloudy with Mist and Fog 41 5 39 4 93 93 NNE 8 13 30.21 1023 4 6.437376 0 0
3:55 am 03:55 Cloudy with Mist and Fog 41 5 39 4 93 93 NNE 9 15 30.21 1023 4 6.437376 0 0
4:15 am 04:15 Cloudy with Mist and Fog 41 5 39 4 93 93 NNE 8 13 30.21 1023 3 4.828032 0 0
4:35 am 04:35 Cloudy with Mist and Fog 41 5 39 4 93 93 NNE 8 13 30.21 1023 3 4.828032 0 0
4:55 am 04:55 Cloudy with Mist and Fog 41 5 39 4 93 93 NNE 8 13 30.21 1023 3 4.828032 0 0
5:15 am 05:15 Cloudy with Mist and Fog 41 5 41 5 100 100 NNE 9 15 30.21 1023 3 4.828032 0 0
5:35 am 05:35 Cloudy with Mist and Fog 41 5 41 5 100 100 NNE 9 15 30.21 1023 3 4.828032 0 0
5:55 am 05:55 Cloudy with Mist and Fog 41 5 41 5 100 100 NNE 9 15 30.21 1023 3 4.828032 0 0
6:15 am 06:15 Cloudy with Mist and Fog 41 5 41 5 100 100 N 8 13 30.21 1023 5 8.04672 0 0
6:35 am 06:35 Cloudy 41 5 41 5 100 100 NNE 8 13 30.24 1024 7 11.265408 0 0
6:55 am 06:55 Cloudy with Mist and Fog 43 6 41 5 93 93 NNE 7 11 30.24 1024 5 8.04672 0 0
7:15 am 07:15 Cloudy with Mist and Fog 43 6 41 5 93 93 NNE 8 13 30.24 1024 5 8.04672 0 0
7:35 am 07:35 Cloudy with Mist and Fog 43 6 41 5 93 93 N 10 17 30.24 1024 5 8.04672 0 0
7:55 am 07:55 Cloudy with Mist and Fog 43 6 41 5 93 93 N 10 17 30.24 1024 2.5 4.02336 0 0
8:15 am 08:15 Cloudy with Mist and Fog 43 6 41 5 93 93 NNE 10 17 30.27 1025 3 4.828032 0 0
8:35 am 08:35 Cloudy with Mist and Fog 43 6 41 5 93 93 NNE 12 19 30.27 1025 5 8.04672 0 0
8:55 am 08:55 Cloudy with Mist and Fog 43 6 41 5 93 93 N 9 15 30.27 1025 5 8.04672 0 0
9:15 am 09:15 Cloudy 43 6 41 5 93 93 NNE 10 17 30.27 1025 10 16.09344 0 0
9:35 am 09:35 Cloudy with Mist and Fog 43 6 41 5 93 93 NNE 10 17 30.27 1025 5 8.04672 0 0
9:55 am 09:55 Cloudy with Light Drizzle 43 6 41 5 93 93 N 9 15 30.27 1025 4 6.437376 0 0
10:15 am 10:15 Cloudy 43 6 41 5 93 93 N 8 13 30.3 1026 7 11.265408 0 0
10:35 am 10:35 Cloudy with Rain 43 6 41 5 93 93 NNE 9 15 30.3 1026 7 11.265408 0 0
10:55 am 10:55 Cloudy 45 7 43 6 93 93 NNE 13 20 30.3 1026 10 16.09344 0 0
11:15 am 11:15 Cloudy 46 8 41 5 82 82 NNE 12 19 30.3 1026 10 16.09344 0 0
11:35 am 11:35 Cloudy 46 8 41 5 82 82 N 12 19 30.3 1026 10 16.09344 0 0
11:55 am 11:55 Cloudy with Light Drizzle 46 8 41 5 82 82 NNE 12 19 30.3 1026 10 16.09344 0 0
12:15 pm 12:15 Cloudy 46 8 41 5 82 82 N 9 15 30.3 1026 10 16.09344 0 0
12:35 pm 12:35 Cloudy 46 8 41 5 82 82 N 9 15 30.3 1026 10 16.09344 0 0
12:55 pm 12:55 Cloudy 46 8 41 5 82 82 N 12 19 30.3 1026 10 16.09344 0 0
1:15 pm 13:15 Cloudy 48 9 41 5 76 76 N 10 17 30.27 1025 10 16.09344 0 0
1:35 pm 13:35 Cloudy 48 9 41 5 76 76 N 9 15 30.27 1025 10 16.09344 0 0
1:55 pm 13:55 Cloudy 50 10 43 6 76 76 N 8 13 30.27 1025 10 16.09344 0 0
2:15 pm 14:15 Cloudy 48 9 41 5 76 76 NNE 15 24 30.27 1025 10 16.09344 0 0
2:35 pm 14:35 Cloudy 48 9 43 6 82 82 NNE 10 17 30.27 1025 10 16.09344 0 0
2:55 pm 14:55 Cloudy 48 9 41 5 76 76 N 10 17 30.27 1025 10 16.09344 0 0
3:15 pm 15:15 Mostly Cloudy 50 10 41 5 71 71 NNE 13 20 30.27 1025 10 16.09344 0 0
3:35 pm 15:35 Mostly Cloudy 50 10 41 5 71 71 N 12 19 30.27 1025 10 16.09344 0 0
3:55 pm 15:55 Cloudy 48 9 41 5 76 76 NNW 10 17 30.27 1025 10 16.09344 0 0
4:15 pm 16:15 Cloudy 48 9 41 5 76 76 N 9 15 30.27 1025 10 16.09344 0 0
4:35 pm 16:35 Cloudy 48 9 41 5 76 76 NNE 10 17 30.27 1025 10 16.09344 0 0
4:55 pm 16:55 Cloudy 50 10 39 4 67 67 N 8 13 30.27 1025 10 16.09344 0 0
5:15 pm 17:15 Cloudy 50 10 41 5 71 71 N 13 20 30.27 1025 10 16.09344 0 0
5:35 pm 17:35 Cloudy 50 10 41 5 71 71 N 14 22 30.27 1025 10 16.09344 0 0
5:55 pm 17:55 Cloudy 50 10 39 4 67 67 N 13 20 30.27 1025 10 16.09344 0 0
6:15 pm 18:15 Cloudy 50 10 39 4 67 67 NNE 9 15 30.27 1025 10 16.09344 0 0
6:35 pm 18:35 Cloudy 50 10 39 4 67 67 NNE 10 17 30.27 1025 10 16.09344 0 0
6:55 pm 18:55 Cloudy 50 10 39 4 67 67 NNE 9 15 30.27 1025 10 16.09344 0 0
7:15 pm 19:15 Mostly Cloudy 50 10 41 5 71 71 NNE 13 20 30.24 1024 10 16.09344 0 0
7:35 pm 19:35 Partly Cloudy 48 9 39 4 71 71 NNE 7 11 30.27 1025 10 16.09344 0 0
7:55 pm 19:55 Mostly Cloudy 48 9 39 4 71 71 N 13 20 30.27 1025 10 16.09344 0 0
8:15 pm 20:15 Cloudy 48 9 39 4 71 71 NNE 9 15 30.27 1025 10 16.09344 0 0
8:35 pm 20:35 Cloudy 48 9 41 5 76 76 NNE 8 13 30.27 1025 10 16.09344 0 0
8:55 pm 20:55 Cloudy 46 8 41 5 82 82 NE 12 19 30.3 1026 10 16.09344 0 0
9:15 pm 21:15 Cloudy 46 8 41 5 82 82 NE 10 17 30.3 1026 10 16.09344 0 0
9:35 pm 21:35 Mostly Cloudy 45 7 39 4 81 81 NE 7 11 30.3 1026 10 16.09344 0 0
9:55 pm 21:55 Partly Cloudy 43 6 39 4 87 87 NW 3 6 30.33 1027 10 16.09344 0 0
10:15 pm 22:15 Clear 43 6 39 4 87 87 Calm 30.33 1027 10 16.09344 0 0
10:35 pm 22:35 Clear 43 6 39 4 87 87 NW 3 6 30.33 1027 10 16.09344 0 0
10:55 pm 22:55 Clear 43 6 39 4 87 87 NW 3 6 30.33 1027 10 16.09344 0 0
11:15 pm 23:15 Clear 41 5 39 4 93 93 WNW 5 7 30.36 1028 10 16.09344 0 0
11:35 pm 23:35 Clear 41 5 39 4 93 93 Calm 30.36 1028 10 16.09344 0 0
11:55 pm 23:55 Clear 41 5 39 4 93 93 Calm 30.36 1028 10 16.09344 0 0

Powered by AerisWeather